Kecskemet, Hungary

1:38 AM CEST on July 26, 2016 (GMT +0200)
Kecskemet

Weather History for LHKE - February, 2013

Change the Weather History Date:

Friday, February 8, 2013

  Actual Average (LHBP) Record (LHBP)
Temperature  
Mean Temperature 34 °F -  
Max Temperature 41 °F 40 °F 62 °F (2001)
Min Temperature 24 °F 24 °F -5 °F (2012)
Degree Days  
Heating Degree Days 32    
Moisture  
Dew Point 27 °F    
Average Humidity 80    
Maximum Humidity 100    
Minimum Humidity 49    
Precipitation  
Precipitation 0.00 in - - ()
Sea Level Pressure  
Sea Level Pressure 29.76 in    
Wind  
Wind Speed 6 mph ()    
Max Wind Speed 11 mph    
Max Gust Speed -    
Visibility 5.9 miles    
Events      
Averages and records for this station are not official NWS values.
T = Trace of Precipitation, MM = Missing Value Source: Averaged Metar Reports

Daily Weather History Graph

Daily Weather History Graph

Search for Another Location

Airport or City:

Trip Planner

Search our weather history database for the weather conditions in past years. The results will help you decide how hot, cold, wet, or windy it might be!

Date:

Astronomy

Feb. 08, 2013 Rise Set
Actual Time 6:56 AM CET 4:54 PM CET
Civil Twilight 6:24 AM CET 5:26 PM CET
Nautical Twilight 5:48 AM CET 6:02 PM CET
Astronomical Twilight 5:13 AM CET 6:38 PM CET
Moon 5:14 AM CET (2/8) 3:04 PM CET (2/8)
Length of Visible Light 11h 02m
Length of Day
9h 58m
Waning Crescent, 5% of the Moon is Illuminated
Feb 8
Waning Crescent
Feb 10
New
Feb 17
First Quarter
Feb 25
Full
Mar 4
Last Quarter

Hourly Weather History & Observations

Time (CET) Temp. Windchill Dew Point Humidity Pressure Visibility Wind Dir Wind Speed Gust Speed Precip Events Conditions
12:15 AM 32.0 °F 24.3 °F 28.4 °F 87% 29.71 in 6.2 mi NNW 8.9 mph - N/A   Scattered Clouds
12:45 AM 32.0 °F 24.3 °F 28.4 °F 87% 29.71 in 6.2 mi NNW 8.9 mph - N/A   Mostly Cloudy
1:15 AM 32.0 °F 25.7 °F 28.4 °F 87% 29.71 in 6.2 mi North 6.7 mph - N/A   Mostly Cloudy
1:45 AM 32.0 °F 25.7 °F 28.4 °F 87% 29.74 in 6.2 mi North 6.7 mph - N/A   Mostly Cloudy
2:15 AM 33.8 °F 26.5 °F 30.2 °F 87% 29.74 in 6.2 mi North 8.9 mph - N/A   Mostly Cloudy
2:45 AM 33.8 °F 27.9 °F 30.2 °F 87% 29.74 in 6.2 mi North 6.7 mph - N/A   Mostly Cloudy
3:15 AM 33.8 °F 26.5 °F 32.0 °F 93% 29.74 in 3.7 mi North 8.9 mph - N/A   Mostly Cloudy
3:45 AM 33.8 °F 27.9 °F 32.0 °F 93% 29.74 in 5.0 mi North 6.7 mph - N/A   Mostly Cloudy
4:15 AM 33.8 °F 27.9 °F 32.0 °F 93% 29.71 in 4.3 mi North 6.7 mph - N/A   Mostly Cloudy
4:45 AM 32.0 °F 25.7 °F 32.0 °F 100% 29.71 in 3.7 mi North 6.7 mph - N/A   Mostly Cloudy
5:15 AM 32.0 °F 25.7 °F 30.2 °F 93% 29.71 in 6.2 mi North 6.7 mph - N/A   Mostly Cloudy
5:45 AM - - - N/A% - 6.2 mi NNW 8.9 mph - N/A   Clear
6:15 AM 32.0 °F 25.7 °F 28.4 °F 87% 29.74 in - North 6.7 mph - N/A   Clear
6:45 AM 30.2 °F 23.5 °F 28.4 °F 93% 29.74 in - North 6.7 mph - N/A   Clear
7:15 AM 28.4 °F 23.4 °F 28.4 °F 100% 29.77 in - NNW 4.5 mph - N/A   Clear
7:45 AM 30.2 °F - 28.4 °F 93% 29.77 in - NW 2.2 mph - N/A   Clear
8:15 AM 30.2 °F 25.5 °F 28.4 °F 93% 29.77 in - WNW 4.5 mph - N/A   Clear
8:45 AM - - - N/A% - 6.2 mi NW 8.9 mph - N/A   Clear
9:15 AM 32.0 °F 27.6 °F 28.4 °F 87% 29.77 in - NW 4.5 mph - N/A   Clear
9:45 AM 32.0 °F 25.7 °F 28.4 °F 87% 29.77 in - NW 6.7 mph - N/A   Clear
10:15 AM 33.8 °F 27.9 °F 28.4 °F 81% 29.77 in 6.2 mi WNW 6.7 mph - N/A   Mostly Cloudy
10:45 AM 33.8 °F 27.9 °F 28.4 °F 81% 29.77 in 6.2 mi WNW 6.7 mph - N/A   Mostly Cloudy
11:15 AM 35.6 °F 28.7 °F 28.4 °F 75% 29.77 in 6.2 mi WNW 8.9 mph - N/A   Mostly Cloudy
11:45 AM - - - N/A% - 6.2 mi NW 8.9 mph - N/A   Clear
12:15 PM 39.2 °F 34.4 °F 23.0 °F 52% 29.77 in 6.2 mi NW 6.7 mph - N/A   Mostly Cloudy
12:45 PM 39.2 °F 34.4 °F 24.8 °F 56% 29.74 in 6.2 mi NW 6.7 mph - N/A   Mostly Cloudy
1:15 PM 39.2 °F 33.1 °F 24.8 °F 56% 29.74 in 6.2 mi WNW 8.9 mph - N/A   Mostly Cloudy
1:45 PM 41.0 °F 35.4 °F 24.8 °F 53% 29.74 in 6.2 mi WNW 8.9 mph - N/A   Mostly Cloudy
2:15 PM 41.0 °F 35.4 °F 23.0 °F 49% 29.74 in 6.2 mi NW 8.9 mph - N/A   Mostly Cloudy
2:45 PM - - - N/A% - 6.2 mi NW 8.9 mph - N/A   Mostly Cloudy
3:15 PM 39.2 °F 32.2 °F 24.8 °F 56% 29.74 in 6.2 mi WNW 11.2 mph - N/A   Scattered Clouds
3:45 PM 39.2 °F 32.2 °F 24.8 °F 56% 29.74 in 6.2 mi WNW 11.2 mph - N/A   Mostly Cloudy
4:15 PM 37.4 °F 30.9 °F 24.8 °F 60% 29.77 in 6.2 mi WNW 8.9 mph - N/A   Mostly Cloudy
4:45 PM 35.6 °F 28.7 °F 23.0 °F 60% 29.77 in 6.2 mi NW 8.9 mph - N/A   Scattered Clouds
5:15 PM 33.8 °F 27.9 °F 21.2 °F 60% 29.77 in 6.2 mi NNW 6.7 mph - N/A   Scattered Clouds
5:45 PM - - - N/A% - 6.2 mi NNW 6.7 mph - N/A   Overcast
6:15 PM 30.2 °F 23.5 °F 23.0 °F 75% 29.77 in - NW 6.7 mph - N/A   Clear
6:45 PM 32.0 °F 25.7 °F 24.8 °F 75% 29.80 in - NW 6.7 mph - N/A   Clear
7:15 PM 30.2 °F 25.5 °F 24.8 °F 80% 29.80 in 6.2 mi WNW 4.5 mph - N/A   Scattered Clouds
7:45 PM 28.4 °F 23.4 °F 24.8 °F 86% 29.80 in 6.2 mi WNW 4.5 mph - N/A   Scattered Clouds
8:15 PM 30.2 °F - 24.8 °F 80% 29.80 in - North 2.2 mph - N/A   Clear
8:45 PM - - - N/A% - 6.2 mi North 4.5 mph - N/A   Clear
9:15 PM 30.2 °F - 24.8 °F 80% 29.83 in 6.2 mi North 2.2 mph - N/A   Scattered Clouds
9:45 PM 30.2 °F - 26.6 °F 86% 29.83 in 6.2 mi North 2.2 mph - N/A   Mostly Cloudy
10:15 PM 28.4 °F - 24.8 °F 86% 29.83 in - North 2.2 mph - N/A   Clear
10:45 PM 26.6 °F - 24.8 °F 93% 29.83 in 5.0 mi North 2.2 mph - N/A   Unknown
11:15 PM 24.8 °F - 24.8 °F 100% 29.83 in 4.3 mi North 2.2 mph - N/A   Unknown
11:45 PM - - - N/A% - 5.0 mi North - - N/A   Mostly Cloudy